This demonstration page uses our WeatherBlox Daily Observations layout. Learn more.

Left ArrowRight Arrow

Hourly Observations for October 1, 2022

Temp ( °F °C ) Dew Point ( °F °C ) Humidity (%) Winds ( mph kmh ) Pressure ( in mb ) Visibility ( mi km ) Precip ( " mm )
12:54 am 00:54 Clear 63 17.2 42 5.6 46 46 SSE 12 19 30.04 1017 10 16 0.00 0.00
1:54 am 01:54 Clear 58 14.4 42 5.6 55 55 S 7 11 30.04 1017 10 16 0.00 0.00
2:54 am 02:54 Clear 57 13.9 42 5.6 57 57 SSE 8 13 30.06 1018 10 16 0.00 0.00
3:54 am 03:54 Clear 59 15 42 5.6 53 53 SSE 7 11 30.06 1018 10 16 0.00 0.00
4:54 am 04:54 Clear 60 15.6 41 5 49 49 SSE 5 7 30.08 1019 10 16 0.00 0.00
5:54 am 05:54 Clear 59 15 41 5 51 51 SE 8 13 30.10 1019 10 16 0.00 0.00
6:54 am 06:54 Clear 58 14.4 42 5.6 55 55 SSE 7 11 30.11 1020 10 16 0.00 0.00
7:54 am 07:54 Mostly Cloudy 59 15 42 5.6 53 53 SE 6 9 30.13 1020 10 16 0.00 0.00
8:54 am 08:54 Mostly Sunny 61 16.1 43 6.1 51 51 SE 10 17 30.14 1021 10 16 0.00 0.00
9:54 am 09:54 Sunny 65 18.3 44 6.7 47 47 SSE 14 22 30.14 1021 10 16 0.00 0.00
10:54 am 10:54 Sunny 70 21.1 43 6.1 38 38 SSE 14 22 30.14 1021 10 16 0.00 0.00
11:54 am 11:54 Sunny 75 23.9 44 6.7 33 33 SSE 15 24 30.13 1020 10 16 0.00 0.00
12:54 pm 12:54 Sunny 79 26.1 43 6.1 28 28 SSE 14 22 30.12 1020 10 16 0.00 0.00
1:54 pm 13:54 Sunny 79 26.1 43 6.1 28 28 SSE 14 22 30.11 1020 10 16 0.00 0.00
2:54 pm 14:54 Sunny 79 26.1 43 6.1 28 28 SSE 10 17 30.10 1019 10 16 0.00 0.00
3:54 pm 15:54 Sunny 81 27.2 43 6.1 26 26 SE 16 26 30.09 1019 10 16 0.00 0.00
4:54 pm 16:54 Sunny 82 27.8 43 6.1 25 25 SE 14 22 30.09 1019 10 16 0.00 0.00
5:54 pm 17:54 Sunny 79 26.1 42 5.6 27 27 SE 10 17 30.09 1019 10 16 0.00 0.00
6:54 pm 18:54 Sunny 75 23.9 41 5 29 29 SE 8 13 30.10 1019 10 16 0.00 0.00
7:54 pm 19:54 Clear 72 22.2 40 4.4 31 31 SE 10 17 30.12 1020 10 16 0.00 0.00
8:54 pm 20:54 Clear 70 21.1 42 5.6 36 36 SE 14 22 30.14 1021 10 16 0.00 0.00
9:54 pm 21:54 Clear 68 20 43 6.1 40 40 SE 12 19 30.15 1021 10 16 0.00 0.00
10:54 pm 22:54 Clear 67 19.4 42 5.6 40 40 SE 12 19 30.16 1021 10 16 0.00 0.00
11:54 pm 23:54 Clear 61 16.1 41 5 48 48 SE 5 7 30.18 1022 10 16 0.00 0.00

Powered by AerisWeather